02/05/2024 14:15:00,0.155
02/05/2024 14:30:00,0.155
02/05/2024 14:45:00,0.155
02/05/2024 15:00:00,0.155
02/05/2024 15:15:00,0.154
02/05/2024 15:30:00,0.155
02/05/2024 15:45:00,0.153
02/05/2024 16:00:00,0.153
02/05/2024 16:15:00,0.153
02/05/2024 16:30:00,0.153
02/05/2024 16:45:00,0.153
02/05/2024 17:00:00,0.152
02/05/2024 17:15:00,0.151
02/05/2024 17:30:00,0.151
02/05/2024 17:45:00,0.151
02/05/2024 18:00:00,0.15
02/05/2024 18:15:00,0.15
02/05/2024 18:30:00,0.149
02/05/2024 18:45:00,0.15
02/05/2024 19:00:00,0.149
02/05/2024 19:15:00,0.149
02/05/2024 19:30:00,0.149
02/05/2024 19:45:00,0.149
02/05/2024 20:00:00,0.148
02/05/2024 20:15:00,0.148
02/05/2024 20:30:00,0.148
02/05/2024 20:45:00,0.147
02/05/2024 21:00:00,0.147
02/05/2024 21:15:00,0.147
02/05/2024 21:30:00,0.146
02/05/2024 21:45:00,0.146
02/05/2024 22:00:00,0.146
02/05/2024 22:15:00,0.146
02/05/2024 22:30:00,0.145
02/05/2024 22:45:00,0.146
02/05/2024 23:00:00,0.145
02/05/2024 23:15:00,0.145
02/05/2024 23:30:00,0.146
02/05/2024 23:45:00,0.145
03/05/2024 00:00:00,0.145
03/05/2024 00:15:00,0.145
03/05/2024 00:30:00,0.145
03/05/2024 00:45:00,0.145
03/05/2024 01:00:00,0.145
03/05/2024 01:15:00,0.145
03/05/2024 01:30:00,0.145
03/05/2024 01:45:00,0.144
03/05/2024 02:00:00,0.144
03/05/2024 02:15:00,0.144
03/05/2024 02:30:00,0.144
03/05/2024 02:45:00,0.144
03/05/2024 03:00:00,0.144
03/05/2024 03:15:00,0.144
03/05/2024 03:30:00,0.144
03/05/2024 03:45:00,0.143
03/05/2024 04:00:00,0.143
03/05/2024 04:15:00,0.144
03/05/2024 04:30:00,0.144
03/05/2024 04:45:00,0.144
03/05/2024 05:00:00,0.144
03/05/2024 05:15:00,0.143
03/05/2024 05:30:00,0.144
03/05/2024 05:45:00,0.143
03/05/2024 06:00:00,0.144
03/05/2024 06:15:00,0.143
03/05/2024 06:30:00,0.144
03/05/2024 06:45:00,0.144
03/05/2024 07:00:00,0.143
03/05/2024 07:15:00,0.143
03/05/2024 07:30:00,0.142
03/05/2024 07:45:00,0.143
03/05/2024 08:00:00,0.142
03/05/2024 08:15:00,0.143
03/05/2024 08:30:00,0.142
03/05/2024 08:45:00,0.143
03/05/2024 09:00:00,0.142
03/05/2024 09:15:00,0.142
03/05/2024 09:30:00,0.142
03/05/2024 09:45:00,0.142
03/05/2024 10:00:00,0.142
03/05/2024 10:15:00,0.142
03/05/2024 10:30:00,0.142
03/05/2024 10:45:00,0.143
03/05/2024 11:00:00,0.143
03/05/2024 11:15:00,0.142
03/05/2024 11:30:00,0.142
03/05/2024 11:45:00,0.142
03/05/2024 12:00:00,0.142
03/05/2024 12:15:00,0.142
03/05/2024 12:30:00,0.142
03/05/2024 12:45:00,0.141
03/05/2024 13:00:00,0.141
03/05/2024 13:15:00,0.142
03/05/2024 13:30:00,0.141
03/05/2024 13:45:00,0.141
03/05/2024 14:00:00,0.14
03/05/2024 14:15:00,0.141
03/05/2024 14:30:00,0.14
03/05/2024 14:45:00,0.14
03/05/2024 15:00:00,0.14
03/05/2024 15:15:00,0.14
03/05/2024 15:30:00,0.14
03/05/2024 15:45:00,0.139
03/05/2024 16:00:00,0.139
03/05/2024 16:15:00,0.139
03/05/2024 16:30:00,0.139
03/05/2024 16:45:00,0.138
03/05/2024 17:00:00,0.138
03/05/2024 17:15:00,0.138
03/05/2024 17:30:00,0.138
03/05/2024 17:45:00,0.138
03/05/2024 18:00:00,0.138
03/05/2024 18:15:00,0.137
03/05/2024 18:30:00,0.137
03/05/2024 18:45:00,0.137
03/05/2024 19:00:00,0.136
03/05/2024 19:15:00,0.136
03/05/2024 19:30:00,0.136
03/05/2024 19:45:00,0.135
03/05/2024 20:00:00,0.135
03/05/2024 20:15:00,0.135
03/05/2024 20:30:00,0.135
03/05/2024 20:45:00,0.135
03/05/2024 21:00:00,0.134
03/05/2024 21:15:00,0.135
03/05/2024 21:30:00,0.134
03/05/2024 21:45:00,0.134
03/05/2024 22:00:00,0.134
03/05/2024 22:15:00,0.133
03/05/2024 22:30:00,0.133
03/05/2024 22:45:00,0.134
03/05/2024 23:00:00,0.134
03/05/2024 23:15:00,0.134
03/05/2024 23:30:00,0.133
03/05/2024 23:45:00,0.133
04/05/2024 00:00:00,0.134
04/05/2024 00:15:00,0.134
04/05/2024 00:30:00,0.133
04/05/2024 00:45:00,0.134
04/05/2024 01:00:00,0.133
04/05/2024 01:15:00,0.133
04/05/2024 01:30:00,0.134
04/05/2024 01:45:00,0.133
04/05/2024 02:00:00,0.133
04/05/2024 02:15:00,0.133
04/05/2024 02:30:00,0.133
04/05/2024 02:45:00,0.133
04/05/2024 03:00:00,0.134
04/05/2024 03:15:00,0.133
04/05/2024 03:30:00,0.133
04/05/2024 03:45:00,0.133
04/05/2024 04:00:00,0.133
04/05/2024 04:15:00,0.133
04/05/2024 04:30:00,0.133
04/05/2024 04:45:00,0.133
04/05/2024 05:00:00,0.133
04/05/2024 05:15:00,0.133
04/05/2024 05:30:00,0.133
04/05/2024 05:45:00,0.133
04/05/2024 06:00:00,0.134
04/05/2024 06:15:00,0.133
04/05/2024 06:30:00,0.133
04/05/2024 06:45:00,0.133
04/05/2024 07:00:00,0.133
04/05/2024 07:15:00,0.133
04/05/2024 07:30:00,0.133
04/05/2024 07:45:00,0.133
04/05/2024 08:00:00,0.133
04/05/2024 08:15:00,0.133
04/05/2024 08:30:00,0.133
04/05/2024 08:45:00,0.133
04/05/2024 09:00:00,0.133
04/05/2024 09:15:00,0.133
04/05/2024 09:30:00,0.133
04/05/2024 09:45:00,0.132
04/05/2024 10:00:00,0.132
04/05/2024 10:15:00,0.132
04/05/2024 10:30:00,0.132
04/05/2024 10:45:00,0.132
04/05/2024 11:00:00,0.133
04/05/2024 11:15:00,0.132
04/05/2024 11:30:00,0.132
04/05/2024 11:45:00,0.132
04/05/2024 12:00:00,0.132
04/05/2024 12:15:00,0.132
04/05/2024 12:30:00,0.132
04/05/2024 12:45:00,0.133
04/05/2024 13:00:00,0.132
04/05/2024 13:15:00,0.132
04/05/2024 13:30:00,0.132
04/05/2024 13:45:00,0.132
04/05/2024 14:00:00,0.132
04/05/2024 14:15:00,0.132
04/05/2024 14:30:00,0.132
04/05/2024 14:45:00,0.132
04/05/2024 15:00:00,0.132
04/05/2024 15:15:00,0.131
04/05/2024 15:30:00,0.132
04/05/2024 15:45:00,0.131
04/05/2024 16:00:00,0.131
04/05/2024 16:15:00,0.131
04/05/2024 16:30:00,0.131
04/05/2024 16:45:00,0.131
04/05/2024 17:00:00,0.131
04/05/2024 17:15:00,0.131
04/05/2024 17:30:00,0.131
04/05/2024 17:45:00,0.131
04/05/2024 18:00:00,0.131
04/05/2024 18:15:00,0.13
04/05/2024 18:30:00,0.132
04/05/2024 18:45:00,0.131
04/05/2024 19:00:00,0.13
04/05/2024 19:15:00,0.13
04/05/2024 19:30:00,0.13
04/05/2024 19:45:00,0.13
04/05/2024 20:00:00,0.13
04/05/2024 20:15:00,0.13
04/05/2024 20:30:00,0.13
04/05/2024 20:45:00,0.13
04/05/2024 21:00:00,0.13
04/05/2024 21:15:00,0.13
04/05/2024 21:30:00,0.13
04/05/2024 21:45:00,0.13
04/05/2024 22:00:00,0.13
04/05/2024 22:15:00,0.13
04/05/2024 22:30:00,0.129
04/05/2024 22:45:00,0.13
04/05/2024 23:00:00,0.129
04/05/2024 23:15:00,0.129
04/05/2024 23:30:00,0.129
04/05/2024 23:45:00,0.129
05/05/2024 00:00:00,0.129
05/05/2024 00:15:00,0.129
05/05/2024 00:30:00,0.129
05/05/2024 00:45:00,0.129
05/05/2024 01:00:00,0.129
05/05/2024 01:15:00,0.129
05/05/2024 01:30:00,0.129
05/05/2024 01:45:00,0.129
05/05/2024 02:00:00,0.129
05/05/2024 02:15:00,0.129
05/05/2024 02:30:00,0.13
05/05/2024 02:45:00,0.13
05/05/2024 03:00:00,0.13
05/05/2024 03:15:00,0.13
05/05/2024 03:30:00,0.13
05/05/2024 03:45:00,0.13
05/05/2024 04:00:00,0.13
05/05/2024 04:15:00,0.13
05/05/2024 04:30:00,0.13
05/05/2024 04:45:00,0.13
05/05/2024 05:00:00,0.129
05/05/2024 05:15:00,0.13
05/05/2024 05:30:00,0.13
05/05/2024 05:45:00,0.13
05/05/2024 06:00:00,0.13
05/05/2024 06:15:00,0.13
05/05/2024 06:30:00,0.13
05/05/2024 06:45:00,0.13
05/05/2024 07:00:00,0.13
05/05/2024 07:15:00,0.13
05/05/2024 07:30:00,0.129
05/05/2024 07:45:00,0.13
05/05/2024 08:00:00,0.129
05/05/2024 08:15:00,0.13
05/05/2024 08:30:00,0.13
05/05/2024 08:45:00,0.13
05/05/2024 09:00:00,0.129
05/05/2024 09:15:00,0.129
05/05/2024 09:30:00,0.129
05/05/2024 09:45:00,0.129
05/05/2024 10:00:00,0.129
05/05/2024 10:15:00,0.129
05/05/2024 10:30:00,0.13
05/05/2024 10:45:00,0.129
05/05/2024 11:00:00,0.129
05/05/2024 11:15:00,0.13
05/05/2024 11:30:00,0.13
05/05/2024 11:45:00,0.13
05/05/2024 12:00:00,0.13
05/05/2024 12:15:00,0.13
05/05/2024 12:30:00,0.13
05/05/2024 12:45:00,0.13
05/05/2024 13:00:00,0.13
05/05/2024 13:15:00,0.13
05/05/2024 13:30:00,0.13
05/05/2024 13:45:00,0.13
05/05/2024 14:00:00,0.13
05/05/2024 14:15:00,0.13
05/05/2024 14:30:00,0.13
05/05/2024 14:45:00,0.13
05/05/2024 15:00:00,0.13
05/05/2024 15:15:00,0.13
05/05/2024 15:30:00,0.13
05/05/2024 15:45:00,0.13
05/05/2024 16:00:00,0.13
05/05/2024 16:15:00,0.129
05/05/2024 16:30:00,0.129
05/05/2024 16:45:00,0.129
05/05/2024 17:00:00,0.129
05/05/2024 17:15:00,0.129
05/05/2024 17:30:00,0.129
05/05/2024 17:45:00,0.129
05/05/2024 18:00:00,0.129
05/05/2024 18:15:00,0.128
05/05/2024 18:30:00,0.129
05/05/2024 18:45:00,0.129
05/05/2024 19:00:00,0.129
05/05/2024 19:15:00,0.129
05/05/2024 19:30:00,0.128
05/05/2024 19:45:00,0.129
05/05/2024 20:00:00,0.128
05/05/2024 20:15:00,0.129
05/05/2024 20:30:00,0.129
05/05/2024 20:45:00,0.129
05/05/2024 21:00:00,0.128
05/05/2024 21:15:00,0.128
05/05/2024 21:30:00,0.129
05/05/2024 21:45:00,0.128
05/05/2024 22:00:00,0.128
05/05/2024 22:15:00,0.128
05/05/2024 22:30:00,0.128
05/05/2024 22:45:00,0.128
05/05/2024 23:00:00,0.128
05/05/2024 23:15:00,0.128
05/05/2024 23:30:00,0.128
05/05/2024 23:45:00,0.128
06/05/2024 00:00:00,0.128
06/05/2024 00:15:00,0.128
06/05/2024 00:30:00,0.128
06/05/2024 00:45:00,0.128
06/05/2024 01:00:00,0.128
06/05/2024 01:15:00,0.128
06/05/2024 01:30:00,0.128
06/05/2024 01:45:00,0.128
06/05/2024 02:00:00,0.128
06/05/2024 02:15:00,0.128
06/05/2024 02:30:00,0.128
06/05/2024 02:45:00,0.128
06/05/2024 03:00:00,0.128
06/05/2024 03:15:00,0.127
06/05/2024 03:30:00,0.128
06/05/2024 03:45:00,0.128
06/05/2024 04:00:00,0.128
06/05/2024 04:15:00,0.128
06/05/2024 04:30:00,0.128
06/05/2024 04:45:00,0.128
06/05/2024 05:00:00,0.128
06/05/2024 05:15:00,0.129
06/05/2024 05:30:00,0.129
06/05/2024 05:45:00,0.128
06/05/2024 06:00:00,0.128
06/05/2024 06:15:00,0.128
06/05/2024 06:30:00,0.128
06/05/2024 06:45:00,0.129
06/05/2024 07:00:00,0.128
06/05/2024 07:15:00,0.128
06/05/2024 07:30:00,0.128
06/05/2024 07:45:00,0.128
06/05/2024 08:00:00,0.128
06/05/2024 08:15:00,0.128
06/05/2024 08:30:00,0.128
06/05/2024 08:45:00,0.128
06/05/2024 09:00:00,0.128
06/05/2024 09:15:00,0.128
06/05/2024 09:30:00,0.128
06/05/2024 09:45:00,0.127
06/05/2024 10:00:00,0.127
06/05/2024 10:15:00,0.128
06/05/2024 10:30:00,0.127
06/05/2024 10:45:00,0.127
06/05/2024 11:00:00,0.128
06/05/2024 11:15:00,0.127
06/05/2024 11:30:00,0.127
06/05/2024 11:45:00,0.127
06/05/2024 12:00:00,0.127
06/05/2024 12:15:00,0.127
06/05/2024 12:30:00,0.127
06/05/2024 12:45:00,0.127
06/05/2024 13:00:00,0.127
06/05/2024 13:15:00,0.127
06/05/2024 13:30:00,0.127
06/05/2024 13:45:00,0.126
06/05/2024 14:00:00,0.126
06/05/2024 14:15:00,0.127
06/05/2024 14:30:00,0.126
06/05/2024 14:45:00,0.127
06/05/2024 15:00:00,0.127
06/05/2024 15:15:00,0.126
06/05/2024 15:30:00,0.126
06/05/2024 15:45:00,0.126
06/05/2024 16:00:00,0.126
06/05/2024 16:15:00,0.126
06/05/2024 16:30:00,0.126
06/05/2024 16:45:00,0.125
06/05/2024 17:00:00,0.126
06/05/2024 17:15:00,0.126
06/05/2024 17:30:00,0.126
06/05/2024 17:45:00,0.126
06/05/2024 18:00:00,0.126
06/05/2024 18:15:00,0.125
06/05/2024 18:30:00,0.125
06/05/2024 18:45:00,0.125
06/05/2024 19:00:00,0.125
06/05/2024 19:15:00,0.126
06/05/2024 19:30:00,0.125
06/05/2024 19:45:00,0.126
06/05/2024 20:00:00,0.126
06/05/2024 20:15:00,0.125
06/05/2024 20:30:00,0.125
06/05/2024 20:45:00,0.125
06/05/2024 21:00:00,0.126
06/05/2024 21:15:00,0.126
06/05/2024 21:30:00,0.126
06/05/2024 21:45:00,0.126
06/05/2024 22:00:00,0.126
06/05/2024 22:15:00,0.125
06/05/2024 22:30:00,0.125
06/05/2024 22:45:00,0.126
06/05/2024 23:00:00,0.125
06/05/2024 23:15:00,0.125
06/05/2024 23:30:00,0.125
06/05/2024 23:45:00,0.126
07/05/2024 00:00:00,0.125
07/05/2024 00:15:00,0.125
07/05/2024 00:30:00,0.125
07/05/2024 00:45:00,0.125
07/05/2024 01:00:00,0.125
07/05/2024 01:15:00,0.125
07/05/2024 01:30:00,0.125
07/05/2024 01:45:00,0.126
07/05/2024 02:00:00,0.125
07/05/2024 02:15:00,0.125
07/05/2024 02:30:00,0.125
07/05/2024 02:45:00,0.126
07/05/2024 03:00:00,0.125
07/05/2024 03:15:00,0.125
07/05/2024 03:30:00,0.125
07/05/2024 03:45:00,0.125
07/05/2024 04:00:00,0.126
07/05/2024 04:15:00,0.125
07/05/2024 04:30:00,0.125
07/05/2024 04:45:00,0.125
07/05/2024 05:00:00,0.125
07/05/2024 05:15:00,0.125
07/05/2024 05:30:00,0.125
07/05/2024 05:45:00,0.125
07/05/2024 06:00:00,0.124
07/05/2024 06:15:00,0.124
07/05/2024 06:30:00,0.124
07/05/2024 06:45:00,0.124
07/05/2024 07:00:00,0.124
07/05/2024 07:15:00,0.125
07/05/2024 07:30:00,0.124
07/05/2024 07:45:00,0.124
07/05/2024 08:00:00,0.124
07/05/2024 08:15:00,0.124
07/05/2024 08:30:00,0.124
07/05/2024 08:45:00,0.125
07/05/2024 09:00:00,0.125
07/05/2024 09:15:00,0.125
07/05/2024 09:30:00,0.124
07/05/2024 09:45:00,0.125
07/05/2024 10:00:00,0.124
07/05/2024 10:15:00,0.124
07/05/2024 10:30:00,0.125
07/05/2024 10:45:00,0.124
07/05/2024 11:00:00,0.124
07/05/2024 11:15:00,0.124
07/05/2024 11:30:00,0.124
07/05/2024 11:45:00,0.124
07/05/2024 12:00:00,0.124
07/05/2024 12:15:00,0.124
